STARLINK-4756 (53826 NORAD) Tracking and Keplerian Element Data

This shows tracking and keplerian element data for the satellite.

Feedback or suggestion? Click here.




ElementValue
Catalog53826
NameSTARLINK-4756
Epoch Orbit1047
Epoch Day325.33334491
Epoch Year2022
RAAN310.6878
Inclination53.2172
Eccentricity0.0001292
Argument of Perigee78.3186
Mean Anonmoly308.4604
Mean Motion15.15443212
Decay Rate-0.01148468
L11 53826U 22114J 22325.33334491 -.01148468 00000+0 -65155-1 0 9994
L22 53826 53.2172 310.6878 0001292 78.3186 308.4604 15.15443212 10471



Live tracking and technical data element details for STARLINK-4756 (NORAD 53826). STARLINK-4756 can be tracked NOW for your location showing map with azimuth and elevation plus other details from your city location.







IsCatalogInMostPopularTable: catalog: 53826, numindb: -1

Insert: records affected: 1


GetName: 53826 STARLINK-4756

Hit Count: inserted at: Mon, 28 Nov 2022 05:22:03 GMT